{"data":{"norad_id":56059,"epoch":"2026-05-24T23:28:37.420032Z","epoch_age_seconds":80045,"freshness":"FRESH","line1":"1 56059U 23043P   26144.97821088  .00000001  00000+0 -29814-4 0  9996","line2":"2 56059  87.9251 248.5965 0001766 108.5104 251.6222 13.21825250155175","mean_motion":13.2182525,"eccentricity":0.0001766,"inclination_deg":87.9251,"raan_deg":248.5965,"arg_perigee_deg":108.5104,"mean_anomaly_deg":251.6222,"bstar":-2.9814e-5,"rev_number":15517,"period_min":108.94027028157,"perigee_km":1176.4218557514,"apogee_km":1179.090597239,"semimajor_km":7555.8932264952,"source":"CELESTRAK","updated_at":"2026-05-25T13:38:22.702573Z"}}